Terug naar catalogus

DELTA 1 DEB

ActiefPO
NORAD 19105·DEBRIS·🇺🇸 United States

Gelanceerd Jan 22, 1975 vanaf Vandenberg Space Force Base

Loading…

Volgende Passages (komende 24 uur)

TLE

VersSource: Space-Track

Epoch: Sep 13, 2026, 19:01 UTC

1 19105U 75004HN  26256.79304598  .00000354  00000-0  87175-4 0  9992
2 19105  98.7512 193.5143 0059274 256.9736 132.2877 14.57911957196006

Volg DELTA 1 DEB in realtime met AllMySat

Download on the App Store